Home   Weather   Schmallenberg   Past weeks

Flag for Germany Past Weather in Schmallenberg, North Rhine-Westphalia, Germany — Yesterday and Last 2 Weeks

Now
61 °F

Drizzle. Broken clouds.


Feels Like: 61 °F
Forecast: 51 / 65 °F
Wind: 9 mph from Southwest

Location: Paderborn / Lippstadt

Current Time: Jul 27, 2017 at 6:56:11 am

Latest Report: Jul 27, 2017 at 6:20 am


Visibility: N/A

Pressure: 29.74 "Hg

Humidity: 94%

Dew Point: 59 °F

Location of SchmallenbergLocation

Past Weather in Schmallenberg — Graph

°F

Schmallenberg Temperature Yesterday

Maximum temperature yesterday: 70 °F (at 4:50 pm)
Minimum temperature yesterday: 55 °F (at 1:20 am)
Average temperature yesterday: 62 °F

High & Low Weather Summary for the Past Weeks

 TemperatureHumidityPressure
High90 °F (Jul 19, 4:20 pm)100% (Jul 12, 4:20 pm)30.24 "Hg (Jul 12, 4:20 pm)
Low48 °F (Jul 13, 4:50 am)33% (Jul 19, 4:20 pm)29.65 "Hg (Jul 25, 8:20 pm)
Average63 °F74%29.97 "Hg
* Reported Jul 12 5:20 am — Jul 27 5:20 am, Schmallenberg. Weather by CustomWeather, © 2017

Note: Actual official high and low records may vary slightly from our data, if they occured in-between our weather recording intervals... More about our weather records

Advertising

Schmallenberg Weather History for the Previous 24 Hours

Scroll right to see more
 ConditionsComfort  
Time TempWeatherWind HumidityBarometerVisibility
5:20 am
Thu, Jul 27
61 °FPartly cloudy.9 mph88%29.74 "HgN/A
4:50 am61 °FPartly cloudy.8 mph88%29.77 "HgN/A
4:20 am59 °FLight rain. Partly cloudy.8 mph94%29.77 "HgN/A
3:50 am59 °FLight rain. Partly cloudy.8 mph94%29.77 "HgN/A
2:50 am63 °FPassing clouds.12 mph68%29.77 "HgN/A
2:20 am63 °FPassing clouds.9 mph68%29.77 "HgN/A
1:50 am63 °FClear.9 mph68%29.77 "Hg10 mi
1:20 am63 °FClear.8 mph68%29.77 "Hg10 mi
12:50 am63 °FClear.8 mph68%29.80 "Hg10 mi
12:20 am61 °FClear.9 mph72%29.80 "Hg10 mi
11:50 pm
Wed, Jul 26
61 °FClear.8 mph77%29.80 "Hg10 mi
11:20 pm63 °FClear.8 mph73%29.80 "Hg10 mi
10:50 pm63 °FClear.9 mph73%29.80 "Hg10 mi
10:20 pm63 °FClear.7 mph73%29.80 "Hg10 mi
9:50 pm59 °FClear.7 mph82%29.80 "Hg10 mi
9:20 pm61 °FSunny.7 mph72%29.80 "Hg10 mi
8:50 pm66 °FSunny.6 mph60%29.80 "Hg10 mi
8:20 pm68 °FPassing clouds.8 mph56%29.80 "HgN/A
7:50 pm70 °FPassing clouds.7 mph50%29.80 "HgN/A
7:20 pm70 °FPassing clouds.7 mph46%29.80 "HgN/A
6:50 pm68 °FPassing clouds.6 mph53%29.77 "HgN/A
6:20 pm68 °FPassing clouds.6 mph56%29.80 "HgN/A
5:50 pm70 °FPassing clouds.7 mph53%29.77 "HgN/A
5:20 pm70 °FPassing clouds.7 mph53%29.77 "HgN/A
4:50 pm70 °FScattered clouds.6 mph57%29.80 "HgN/A
4:20 pm66 °FScattered clouds.5 mph64%29.80 "HgN/A
3:50 pm64 °FPartly sunny.5 mph68%29.80 "HgN/A
3:20 pm64 °FBroken clouds.3 mph68%29.80 "HgN/A
2:50 pm64 °FBroken clouds.6 mph68%29.80 "HgN/A
2:20 pm64 °FBroken clouds.8 mph68%29.80 "HgN/A
1:50 pm64 °FBroken clouds.5 mph68%29.80 "HgN/A
1:20 pm64 °FBroken clouds.6 mph64%29.80 "HgN/A
12:50 pm64 °FBroken clouds.6 mph78%29.80 "HgN/A
12:20 pm63 °FBroken clouds.7 mph77%29.77 "HgN/A
11:50 am63 °FBroken clouds.9 mph77%29.77 "HgN/A
11:20 am63 °FBroken clouds.8 mph83%29.77 "HgN/A
10:50 am61 °FBroken clouds.7 mph83%29.77 "HgN/A
10:20 am59 °FBroken clouds.8 mph88%29.77 "HgN/A
9:50 am59 °FBroken clouds.7 mph88%29.77 "HgN/A
9:20 am57 °FBroken clouds.7 mph94%29.77 "HgN/A
8:50 am57 °FDrizzle. Broken clouds.6 mph94%29.77 "Hg6 mi
8:20 am57 °FLight rain. Broken clouds.9 mph100%29.74 "Hg6 mi
7:50 am57 °FLight rain. Partly sunny.8 mph94%29.74 "Hg5 mi
7:20 am57 °FLight rain. Partly sunny.8 mph94%29.74 "Hg4 mi
6:50 am57 °FLight rain. Partly sunny.9 mph94%29.74 "Hg4 mi
6:20 am57 °FLight rain. Fog.9 mph94%29.74 "Hg2 mi
Weather by CustomWeather, © 2017

See weather overviewHow to use our weather pages